Retour au catalogue

STARLINK-5430

ActifCommunicationsVLEO
NORAD 54803·PAYLOAD·🇺🇸 United States

Lancé Dec 17, 2022 depuis Cape Canaveral Space Force Station

Loading…

Prochains Passages (prochaines 24 heures)

TLE

FraisSource: CelesTrak SupGP

Époque: Sep 15, 2026, 02:16 UTC

1 54803C 22175AX  26258.09493056 -.00030203  00000+0 -89226-3 0  2583
2 54803  53.1584 266.7540 0001185  90.2632 308.5724 15.34409558    19

Suivez STARLINK-5430 en temps réel avec AllMySat

Download on the App Store